MEASAT-3A

Last updated on Wed Sep 09 2026 00:02:58 GMT+0000 (Coordinated Universal Time)

1 35362U 09032A 26251.43377963 -.00000131 00000+0 00000+0 0 9995 2 35362 0.0503 316.7130 0001855 222.4571 124.5108 1.00271080 8864
UTC large
Height (km)
Speed (km/s)
/
Latitude / Longitude
Inclination (degrees)
Orbital Period (minutes)
Azimuth
Elevation
Range (km)
Doppler Factor

Next 0 passes for location: London (51.5072 / 0.1276)

No passes found over London.
MEASAT-3A